Wetbulb
48.99 42.30 39.94 43.42 45.41 47.07 46.00 44.26 44.63 47.18 49.70 47.01 46.43 55.78 58.01 59.66 60.14 61.40 61.95 62.53 63.24 63.64 64.58 65.53 65.95 65.69 65.18 65.70 66.29 66.70 66.37 68.34 67.39 67.12 65.87 65.94 66.45 65.92 64.84 63.42 63.57 63.85 64.07 63.84
45.96 42.19 46.86 48.80 48.49 47.32 46.18 44.40 44.06 48.72 51.21 48.68 47.20 47.04 54.98 57.61 56.26 60.91 60.98 62.31 62.58 62.55 62.74 63.79 63.03 63.30 63.37 63.78 63.89 63.74 63.15 63.98 65.58 65.11 65.41 64.56 63.62 64.74 64.42 62.83 62.23 61.69 60.34 62.30
44.16 47.37 51.35 49.51 47.51 47.02 44.70 43.75 44.80 45.70 50.43 49.81 48.52 45.29 46.38 55.86 56.64 56.29 60.19 62.83 62.74 61.91 61.11 61.54 61.27 61.14 61.89 61.83 61.87 62.15 61.99 61.98 62.46 64.89 64.88 64.56 60.79 58.66 59.14 58.64 59.86 59.62 59.61 60.86
46.97 50.70 49.84 47.04 47.08 46.77 42.48 48.03 48.82 47.37 46.86 41.71 48.32 37.78 44.65 51.20 54.24 54.71 54.02 61.25 61.39 61.39 61.51 60.43 59.58 59.09 59.76 60.11 61.25 61.18 60.92 59.58 61.16 60.99 59.73 57.33 55.17 54.40 56.91 57.09 59.01 58.72 58.97 59.62
47.96 48.13 47.83 47.95 48.62 49.80 45.20 49.00 49.26 47.83 44.69 42.52 44.49 39.81 44.29 48.36 48.88 52.02 53.40 60.00 61.29 61.68 60.92 59.90 58.90 58.34 58.75 59.61 59.05 59.18 58.81 58.95 59.67 59.76 58.39 57.77 56.76 55.64 56.35 56.38 57.90 57.40 57.51 58.30
49.77 52.36 50.37 49.36 50.64 50.60 51.66 48.87 48.47 46.35 42.16 36.68 41.54 40.77 43.01 43.52 49.71 52.94 55.17 60.54 61.86 60.83 60.57 60.12 59.27 58.22 58.59 58.99 58.61 58.79 58.19 58.49 58.76 59.08 59.05 57.75 56.46 56.46 56.00 54.42 54.93 56.54 56.48 57.26
48.51 48.31 50.15 52.50 48.35 49.48 48.08 42.35 35.99 35.23 35.32 35.95 43.80 41.42 44.65 51.38 54.30 54.77 56.40 59.02 61.01 60.74 59.83 59.18 57.54 56.62 56.93 57.48 57.85 58.43 57.95 57.51 58.18 58.25 58.10 57.80 56.57 56.15 55.94 54.07 54.85 54.77 54.84 55.40
42.52 41.43 48.64 51.68 48.65 45.54 44.17 43.29 36.52 32.30 34.08 37.80 45.42 41.30 47.17 52.85 53.85 54.42 56.42 57.78 60.42 59.25 59.40 58.43 57.26 56.69 56.70 57.57 58.12 57.86 57.87 57.58 57.77 58.05 57.68 57.71 57.66 56.05 55.61 56.33 56.15 54.51 55.17 56.86
42.60 44.62 52.24 51.81 51.39 48.99 44.92 41.88 45.61 41.02 40.42 36.86 40.05 47.19 52.19 53.95 53.89 54.91 54.77 55.17 57.79 58.24 58.14 57.96 57.67 57.18 56.57 56.92 57.22 58.12 57.98 57.53 57.85 57.92 57.41 57.08 57.39 56.74 56.42 56.63 57.41 57.47 56.27 57.69
47.71 42.97 51.20 51.69 51.41 50.06 46.10 48.69 40.39 40.12 33.08 32.08 38.96 41.06 44.30 49.16 51.32 53.32 53.04 53.61 57.56 57.79 56.98 58.14 57.96 57.14 56.85 57.51 57.79 57.92 58.60 58.39 58.85 58.36 57.92 58.11 57.34 57.64 57.28 57.14 56.71 56.86 57.30 57.80
47.12 45.96 46.91 51.12 47.18 45.72 45.93 42.59 42.14 41.76 40.66 34.85 33.86 39.78 49.70 50.62 53.09 52.24 53.55 55.06 55.86 56.54 57.08 57.77 58.00 58.06 57.78 57.66 57.77 58.70 58.45 58.34 58.18 58.35 58.38 58.19 57.30 57.79 57.37 56.89 57.34 57.73 57.75 58.10
49.93 45.90 41.70 46.10 51.07 53.11 49.41 46.44 44.15 37.58 37.40 39.73 38.42 38.74 51.98 51.56 52.53 54.40 54.65 56.76 55.56 55.95 55.82 56.85 57.51 58.33 57.83 57.29 57.17 57.92 58.54 58.59 58.24 58.59 57.73 56.90 57.24 56.97 56.92 57.17 57.55 56.85 56.06 55.91
49.81 43.79 38.99 41.99 45.53 49.12 46.74 48.39 47.15 46.15 44.36 39.36 36.86 38.60 52.99 53.33 51.91 54.43 53.97 55.67 57.30 56.21 55.93 55.62 58.19 57.79 58.36 58.80 58.27 58.39 59.02 58.88 59.77 59.44 57.75 57.55 56.88 57.08 56.29 55.07 54.65 56.23 54.89 53.07
53.90 46.46 42.97 37.69 42.32 46.80 45.76 48.65 48.31 44.68 39.14 39.62 41.03 42.90 47.92 50.26 51.10 51.65 52.20 53.52 54.51 55.64 56.02 56.25 56.72 57.91 58.36 58.60 58.80 57.91 56.86 58.22 57.79 57.11 57.14 55.89 54.98 54.70 54.99 54.45 54.61 53.77 53.54 52.63
48.82 42.76 44.77 47.56 49.62 49.22 48.11 47.80 48.03 46.71 46.52 43.17 44.75 44.32 47.90 49.42 50.85 52.46 52.78 53.53 55.31 56.96 57.33 57.83 57.56 57.72 58.11 57.76 58.30 58.55 57.75 57.37 56.87 56.40 55.24 54.79 55.06 55.25 54.95 54.66 53.23 52.44 51.90 51.65
51.13 42.66 45.75 44.82 49.44 48.65 46.62 48.13 48.06 47.79 48.47 48.04 48.67 45.65 50.07 51.85 52.21 52.28 53.43 54.58 53.95 57.37 57.87 58.03 58.51 58.51 58.87 58.02 57.52 58.54 57.26 56.90 56.17 55.40 54.79 55.91 55.03 53.27 51.91 51.07 50.51 50.41 50.17 50.46
48.13 44.93 43.02 39.42 47.73 46.75 42.60 46.24 47.80 48.33 48.30 47.32 42.18 44.74 48.74 48.97 50.61 50.86 53.47 54.60 56.34 56.35 56.36 56.36 56.40 57.29 57.52 57.43 58.24 57.32 56.86 56.17 54.59 54.09 53.72 52.91 52.14 51.40 50.54 49.45 49.12 48.42 47.53 48.04
47.93 46.51 45.25 41.04 43.88 36.00 44.93 50.72 50.82 48.96 49.71 49.13 48.66 49.03 49.28 47.70 50.32 52.01 53.46 55.37 55.37 55.70 55.86 55.92 56.02 56.43 56.11 56.55 55.44 55.35 54.82 53.75 53.27 51.51 50.98 50.47 50.05 48.52 48.51 48.13 47.60 46.47 46.14 46.03
50.38 48.27 43.36 40.45 39.82 44.98 47.98 49.31 48.36 46.51 45.98 50.43 48.00 50.11 51.02 51.88 51.99 52.13 56.13 56.33 55.55 55.63 55.74 55.56 55.06 54.68 54.60 54.96 54.69 53.69 52.81 52.08 51.62 49.58 49.30 49.29 48.80 48.17 47.90 46.58 45.88 45.68 45.80 45.73
50.30 49.55 45.72 41.66 38.40 36.28 45.26 52.12 54.35 51.64 41.93 50.31 51.32 51.10 50.22 50.99 43.73 48.33 55.07 56.18 55.82 55.46 55.02 54.49 54.71 54.39 53.39 52.82 52.86 51.88 50.07 48.90 48.35 48.17 48.88 48.56 48.36 46.83 45.89 45.42 45.32 45.49 45.61 46.30
41.75 43.58 41.34 40.79 38.42 44.20 50.69 53.57 53.18 40.59 41.62 50.69 50.57 48.80 48.63 48.02 49.63 53.33 55.68 55.19 55.58 55.36 54.78 54.53 53.82 52.78 52.04 51.73 50.97 49.38 48.63 47.97 49.08 49.08 48.77 47.95 46.79 45.90 45.75 45.32 45.18 45.18 45.35 43.31
40.60 39.70 41.19 41.13 36.49 37.16 53.54 51.38 46.31 48.45 53.04 51.06 50.96 51.60 52.45 53.62 54.65 55.02 54.85 54.27 54.47 54.01 53.47 53.49 52.63 51.44 50.74 51.26 51.14 48.88 47.03 48.48 48.83 48.34 47.51 46.04 45.43 46.80 46.83 44.58 43.95 44.05 40.09 38.68
41.51 45.86 44.25 44.65 43.35 49.83 52.74 51.16 52.80 53.19 51.86 53.86 50.45 53.00 54.73 54.36 54.39 54.68 54.13 53.80 53.53 53.65 52.98 52.63 51.15 49.97 49.94 50.24 50.22 48.40 47.59 48.77 48.82 47.43 46.18 44.97 45.39 44.53 44.47 42.52 41.26 40.48 38.94 37.70
47.10 50.69 46.95 46.21 48.52 50.80 52.43 53.74 53.56 54.25 52.59 53.47 55.40 54.98 55.52 54.23 54.81 54.25 54.03 53.23 53.23 52.11 51.52 51.55 51.59 48.41 47.47 49.08 49.31 47.55 48.33 48.52 47.22 45.83 44.35 46.29 45.77 43.34 42.71 43.47 42.41 40.37 38.75 37.59
45.98 47.00 46.98 47.64 49.62 52.26 52.88 52.79 52.83 53.45 54.25 55.64 55.47 55.38 55.20 55.12 54.46 54.10 53.04 52.63 51.97 51.85 52.55 52.21 49.94 48.15 48.17 48.29 48.02 47.81 48.10 47.58 46.40 45.44 45.21 44.91 44.23 42.84 43.21 42.82 42.56 42.51 40.83 39.61
45.93 44.70 44.83 44.39 49.68 49.61 49.92 52.04 54.52 52.29 52.89 54.97 54.78 54.59 56.60 56.61 54.62 53.64 51.86 52.49 51.48 50.58 50.85 49.68 49.52 49.02 49.14 48.38 48.21 48.37 48.11 46.79 45.52 44.54 43.93 44.50 43.54 42.55 42.57 42.42 42.91 41.09 41.80 39.98
MSLP
1006.85 1007.58 1007.60 1007.31 1006.83 1006.23 1005.99 1005.97 1005.69 1004.82 1004.39 1005.30 1006.17 1007.03 1007.48 1007.75 1008.46 1009.51 1010.28 1011.28 1012.34 1013.29 1014.19 1014.99 1015.61 1016.20 1016.75 1017.08 1017.20 1017.20 1017.22 1017.13 1017.11 1017.27 1017.54 1018.03 1018.67 1019.02 1019.44 1019.49 1019.56 1019.67 1019.71 1019.73
1007.22 1007.07 1006.52 1006.23 1006.01 1005.76 1005.65 1005.58 1005.32 1005.07 1004.50 1005.18 1006.05 1006.84 1007.21 1007.28 1007.81 1008.43 1009.32 1010.41 1011.75 1013.19 1014.25 1015.08 1015.91 1016.59 1017.19 1017.62 1017.79 1017.80 1017.78 1017.62 1017.59 1017.66 1017.88 1018.14 1018.66 1019.26 1019.60 1019.85 1019.94 1020.03 1020.14 1020.16
1006.83 1005.89 1005.78 1005.59 1005.36 1005.35 1005.26 1005.28 1004.93 1005.32 1005.23 1005.51 1006.20 1006.99 1006.94 1007.03 1007.14 1007.74 1008.48 1009.50 1011.02 1012.23 1013.76 1014.99 1015.88 1016.82 1017.39 1017.93 1018.22 1018.37 1018.30 1018.17 1018.08 1018.11 1018.22 1018.58 1018.86 1019.55 1020.01 1020.24 1020.41 1020.46 1020.36 1020.42
1005.89 1004.89 1004.73 1004.52 1004.74 1004.97 1005.17 1005.00 1005.17 1005.28 1005.92 1006.38 1006.57 1007.89 1007.08 1007.20 1007.20 1007.51 1008.13 1009.26 1010.95 1012.19 1013.51 1014.63 1015.65 1016.67 1017.44 1018.08 1018.36 1018.65 1018.67 1018.65 1018.63 1018.58 1018.70 1019.16 1019.56 1020.05 1020.31 1020.31 1020.71 1020.79 1020.69 1020.70
1005.25 1004.49 1004.26 1004.25 1004.51 1004.75 1005.31 1005.27 1005.84 1005.97 1006.67 1007.12 1007.56 1008.12 1007.04 1006.43 1007.43 1007.47 1007.73 1008.87 1010.32 1011.46 1012.74 1014.04 1015.14 1016.17 1017.13 1017.89 1018.61 1018.93 1019.03 1019.02 1019.02 1018.98 1019.18 1019.52 1019.96 1020.13 1020.20 1020.36 1020.88 1021.13 1021.00 1020.70
1004.98 1004.06 1003.92 1003.75 1003.98 1004.42 1004.89 1005.66 1006.53 1007.12 1008.01 1009.01 1008.24 1008.52 1007.49 1006.84 1006.32 1006.62 1007.30 1008.47 1009.70 1010.99 1012.22 1013.47 1014.67 1015.78 1016.86 1017.69 1018.52 1019.05 1019.30 1019.41 1019.38 1019.41 1019.59 1019.79 1020.17 1020.40 1020.61 1020.71 1021.18 1021.28 1021.19 1020.96
1004.97 1004.21 1003.72 1003.57 1004.02 1004.32 1005.38 1007.01 1008.48 1009.50 1009.94 1009.69 1008.50 1008.59 1006.72 1005.87 1005.50 1006.14 1006.93 1007.98 1009.20 1010.45 1011.77 1013.14 1014.30 1015.48 1016.69 1017.59 1018.32 1019.12 1019.52 1019.73 1019.72 1019.84 1019.95 1020.06 1020.21 1020.45 1020.83 1021.02 1021.22 1021.38 1021.34 1021.25
1005.77 1004.72 1003.79 1003.43 1003.87 1004.78 1005.66 1007.26 1009.04 1010.12 1010.82 1010.15 1008.94 1007.92 1007.50 1006.32 1006.35 1006.65 1006.86 1007.58 1009.11 1010.38 1011.34 1012.45 1013.69 1014.95 1016.17 1017.07 1017.87 1018.77 1019.48 1019.84 1019.96 1020.11 1020.22 1020.33 1020.53 1020.73 1020.95 1021.07 1021.21 1021.32 1021.43 1021.45
1005.45 1004.70 1003.60 1003.31 1003.79 1004.69 1005.90 1007.15 1008.10 1009.69 1010.21 1010.55 1009.65 1008.62 1007.99 1007.09 1007.24 1007.60 1007.93 1008.61 1009.77 1010.51 1011.35 1012.46 1013.44 1014.42 1015.61 1016.59 1017.37 1018.22 1019.18 1019.77 1020.05 1020.28 1020.45 1020.67 1020.88 1021.09 1021.26 1021.43 1021.56 1021.62 1021.41 1021.14
1005.11 1005.25 1004.54 1003.89 1004.18 1004.81 1005.61 1006.77 1008.29 1009.89 1011.22 1011.35 1010.25 1009.18 1008.50 1008.30 1008.27 1008.45 1008.85 1009.15 1009.71 1010.43 1011.14 1012.07 1012.93 1013.91 1014.93 1015.92 1016.86 1017.75 1018.57 1019.35 1019.74 1020.01 1020.29 1020.61 1020.85 1021.08 1021.37 1021.58 1021.67 1021.69 1021.56 1021.43
1004.84 1005.61 1005.47 1005.35 1005.01 1005.48 1006.24 1007.20 1008.47 1010.09 1011.17 1011.68 1011.24 1009.92 1007.93 1008.02 1008.14 1008.53 1008.70 1009.01 1009.54 1010.27 1010.90 1011.70 1012.37 1013.17 1014.08 1015.03 1015.97 1016.90 1017.97 1018.72 1019.27 1019.54 1019.94 1020.39 1020.64 1020.91 1021.16 1021.55 1021.87 1021.87 1021.79 1021.65
1004.87 1005.90 1006.64 1006.20 1005.94 1005.99 1006.09 1007.03 1008.23 1010.20 1010.91 1011.06 1010.65 1009.71 1007.99 1007.68 1007.71 1007.98 1008.44 1008.79 1009.27 1009.76 1010.41 1011.17 1011.88 1012.84 1013.75 1014.72 1015.77 1016.54 1017.53 1018.37 1018.74 1018.93 1019.34 1019.92 1020.21 1020.63 1021.18 1021.57 1021.85 1021.91 1022.06 1021.99
1005.78 1006.26 1007.20 1007.13 1006.95 1006.26 1006.35 1006.67 1007.38 1008.48 1009.55 1010.54 1010.59 1009.59 1008.26 1007.57 1007.57 1007.64 1008.04 1008.45 1008.94 1009.45 1009.96 1010.86 1011.73 1012.58 1013.57 1014.34 1015.30 1016.37 1017.36 1018.02 1018.37 1018.82 1019.50 1019.94 1020.83 1021.28 1021.56 1021.86 1021.92 1022.03 1022.07 1022.21
1005.89 1007.03 1007.61 1007.80 1007.54 1007.05 1006.78 1006.82 1007.01 1007.92 1009.10 1009.46 1008.98 1008.28 1007.99 1007.68 1007.52 1007.48 1007.49 1007.89 1008.68 1009.39 1010.13 1010.98 1012.04 1013.40 1014.23 1014.72 1015.42 1016.62 1017.67 1018.37 1018.09 1019.25 1019.95 1020.48 1021.02 1021.36 1021.90 1021.98 1022.06 1022.08 1022.16 1022.34
1006.66 1007.75 1007.93 1007.90 1007.51 1007.03 1006.60 1006.64 1006.91 1007.27 1007.56 1008.19 1008.00 1007.65 1007.09 1006.81 1006.80 1006.83 1006.98 1007.52 1008.46 1009.39 1010.14 1011.81 1012.84 1014.24 1014.71 1015.41 1016.21 1017.11 1018.61 1019.05 1019.03 1019.75 1020.52 1020.97 1021.25 1021.56 1021.78 1021.93 1022.23 1022.24 1022.39 1022.48
1007.29 1007.97 1008.16 1008.12 1007.75 1007.17 1006.52 1006.22 1006.38 1006.29 1006.48 1006.19 1006.36 1006.36 1005.95 1005.79 1006.08 1006.58 1007.01 1007.77 1009.08 1010.32 1011.38 1012.47 1013.39 1014.30 1015.23 1015.94 1017.00 1017.82 1018.83 1019.81 1019.70 1020.47 1020.98 1021.01 1021.38 1021.63 1021.94 1022.25 1022.43 1022.62 1022.71 1022.67
1008.16 1008.65 1009.13 1008.62 1008.26 1007.54 1006.04 1005.85 1005.78 1005.79 1005.73 1005.69 1005.85 1005.71 1005.61 1006.10 1006.62 1006.82 1007.47 1008.25 1009.72 1010.95 1011.92 1012.94 1014.02 1014.73 1015.48 1016.20 1017.16 1017.98 1018.62 1019.19 1019.78 1020.32 1020.72 1021.17 1021.55 1021.99 1022.23 1022.49 1022.75 1022.96 1022.93 1022.80
1008.08 1008.76 1009.19 1009.42 1009.04 1007.44 1005.39 1005.16 1005.09 1005.23 1005.12 1004.67 1004.78 1004.91 1005.23 1005.87 1006.86 1007.19 1007.67 1008.79 1010.13 1011.27 1012.28 1013.20 1014.13 1015.29 1016.02 1016.64 1017.30 1018.12 1018.84 1019.49 1019.99 1020.57 1021.12 1021.40 1021.84 1022.18 1022.48 1022.75 1022.98 1023.04 1023.03 1023.04
1007.69 1008.41 1009.22 1009.41 1008.87 1006.96 1005.62 1005.15 1005.01 1005.01 1004.56 1004.29 1004.34 1004.73 1005.31 1006.15 1007.07 1008.27 1008.50 1009.25 1010.37 1011.34 1012.41 1013.26 1014.23 1015.18 1016.16 1017.10 1017.91 1018.56 1019.13 1019.69 1020.24 1020.90 1021.44 1021.80 1022.00 1022.48 1022.78 1023.16 1023.24 1023.16 1023.20 1023.16
1007.43 1007.97 1009.13 1009.25 1008.65 1006.87 1006.15 1005.19 1004.87 1004.88 1004.21 1004.16 1004.18 1004.71 1005.28 1006.17 1007.71 1009.32 1009.22 1009.82 1011.09 1011.95 1012.83 1013.59 1014.45 1015.30 1016.20 1017.24 1017.90 1018.47 1019.44 1020.04 1020.76 1021.48 1021.66 1021.92 1022.23 1022.62 1023.01 1023.07 1023.20 1023.31 1023.29 1023.16
1008.15 1008.18 1008.66 1008.80 1008.06 1005.81 1005.09 1004.76 1005.07 1005.65 1005.86 1004.90 1004.89 1005.15 1005.62 1006.69 1007.16 1008.85 1009.51 1010.62 1011.27 1012.30 1013.40 1014.26 1014.97 1015.87 1016.37 1017.09 1018.00 1019.14 1019.73 1020.40 1020.92 1021.33 1021.75 1022.15 1022.43 1022.77 1022.92 1023.06 1023.20 1023.29 1023.31 1023.22
1008.37 1008.57 1008.44 1008.52 1008.04 1006.02 1005.62 1005.25 1006.18 1006.90 1006.34 1005.16 1005.05 1005.36 1006.32 1006.88 1007.92 1009.01 1009.95 1010.83 1011.66 1012.61 1013.80 1014.73 1015.75 1016.68 1017.20 1017.72 1018.53 1019.61 1020.26 1020.70 1020.83 1021.53 1022.04 1022.34 1022.48 1022.65 1022.85 1023.06 1023.21 1023.37 1023.43 1023.64
1007.62 1007.50 1007.60 1007.57 1006.74 1006.27 1005.97 1006.25 1005.78 1006.64 1007.56 1007.36 1006.17 1005.96 1006.11 1007.14 1008.25 1009.11 1010.24 1011.19 1012.07 1013.05 1014.14 1015.19 1016.19 1017.20 1017.93 1018.46 1019.04 1019.89 1020.57 1020.67 1021.12 1021.71 1022.23 1022.43 1022.52 1022.68 1022.92 1023.15 1023.35 1023.50 1023.63 1023.72
1007.33 1006.96 1006.90 1007.00 1006.74 1006.95 1007.22 1006.72 1006.82 1007.41 1007.63 1007.54 1008.11 1006.47 1006.19 1006.82 1007.94 1009.10 1010.18 1011.21 1012.20 1013.27 1014.33 1015.48 1016.36 1017.47 1018.43 1018.82 1019.34 1019.86 1020.30 1020.76 1021.23 1021.91 1022.22 1022.32 1022.47 1022.82 1022.87 1022.95 1023.14 1023.49 1023.69 1023.76
1008.46 1008.11 1007.72 1007.39 1007.32 1007.43 1007.51 1008.82 1008.15 1007.91 1008.12 1008.34 1008.64 1009.41 1007.43 1006.71 1008.46 1009.20 1010.06 1011.05 1012.03 1013.06 1013.80 1014.87 1016.09 1017.38 1018.44 1018.89 1019.48 1019.82 1020.32 1020.79 1021.46 1021.85 1022.08 1022.24 1022.42 1022.77 1022.95 1022.94 1023.03 1023.08 1023.14 1023.24
1008.24 1007.80 1007.95 1007.68 1007.65 1007.71 1007.78 1008.03 1007.77 1008.39 1008.26 1008.07 1007.88 1008.38 1010.44 1008.72 1008.48 1009.45 1010.74 1011.45 1011.90 1012.83 1013.89 1014.99 1016.00 1017.05 1017.96 1018.68 1019.33 1019.90 1020.37 1020.81 1021.39 1021.81 1021.96 1022.22 1022.58 1022.74 1022.80 1022.92 1022.96 1022.73 1022.55 1022.81
Wind_Speed
8 2 6 13 11 11 7 7 9 2 6 8 8 18 17 15 14 17 16 16 16 14 10 10 9 9 8 7 6 6 7 5 5 4 4 4 4 4 4 5 7 8 7 8
6 9 14 11 11 11 10 8 7 3 7 7 5 3 11 14 10 19 18 19 18 16 12 12 9 8 7 6 6 7 7 7 4 4 3 4 4 4 5 4 6 7 7 6
10 12 13 13 10 10 6 3 7 3 4 4 4 4 7 11 12 10 15 17 21 21 16 11 9 9 8 7 6 5 5 7 6 6 3 4 5 4 4 3 4 5 7 7
9 17 11 5 3 5 5 7 9 10 3 2 6 5 8 9 13 10 9 18 19 18 15 11 10 9 9 7 7 6 5 6 7 5 6 7 5 5 1 3 4 5 6 6
11 8 5 1 5 7 9 7 4 9 1 5 10 4 10 5 7 10 10 17 20 20 19 16 14 11 10 9 7 6 6 7 6 8 7 6 6 4 3 3 8 6 3 6
14 7 4 7 7 4 4 7 8 6 4 5 9 4 12 6 10 8 7 20 21 21 18 16 14 14 12 11 8 6 6 4 6 7 7 8 8 6 5 4 5 3 2 4
9 7 3 2 3 4 8 8 5 5 4 9 9 4 17 1 9 5 12 17 21 21 19 16 17 15 12 13 10 7 6 5 5 6 6 6 7 7 6 4 4 5 2 2
5 9 9 8 7 5 4 9 7 5 3 5 8 5 2 9 10 9 7 9 18 18 18 18 17 15 15 15 13 9 8 6 6 6 5 4 4 3 4 4 3 3 3 1
3 7 13 11 6 4 6 3 10 1 4 4 3 3 7 9 9 9 9 11 10 14 15 18 16 14 15 14 13 13 9 7 7 6 4 5 6 6 4 4 4 3 2 1
7 3 5 5 5 2 3 1 6 5 1 4 6 4 4 5 7 8 7 6 12 11 13 16 15 15 12 14 11 10 10 9 8 8 6 5 5 5 4 4 2 2 4 5
4 6 10 5 2 5 4 2 1 5 5 4 1 6 6 6 8 10 9 9 10 11 14 16 16 15 17 16 14 12 12 10 9 8 7 7 6 5 6 5 6 5 5 6
9 7 5 7 6 3 9 10 8 6 8 3 5 8 3 8 9 9 8 9 10 11 10 13 14 16 16 15 13 13 10 9 9 9 8 7 7 6 7 7 7 6 6 6
3 1 2 9 9 7 3 4 6 4 5 6 4 8 4 6 6 8 9 8 9 10 9 9 16 14 14 11 13 10 7 6 9 7 6 7 8 8 9 6 6 5 5 6
8 2 7 8 9 6 4 6 3 2 3 5 7 8 8 6 8 8 9 8 9 8 9 10 12 12 10 9 13 11 8 6 11 9 10 10 9 8 5 5 5 5 4 4
7 4 1 5 7 10 13 10 10 12 10 9 10 9 8 8 9 10 10 8 9 11 8 14 14 11 14 14 13 13 11 3 10 11 9 8 6 5 5 5 3 5 6 5
0 4 6 5 8 12 17 17 15 19 13 11 15 10 10 7 4 3 9 9 10 17 19 15 14 14 13 14 14 14 10 7 10 9 7 7 6 6 4 6 7 7 5 4
3 4 2 5 7 11 18 13 15 17 11 4 4 6 4 7 2 8 8 10 19 19 18 17 15 14 14 12 12 11 8 9 10 9 6 7 6 8 7 7 7 6 5 5
5 5 5 4 4 15 5 4 7 8 10 5 4 1 2 2 4 8 9 18 20 20 19 15 13 13 12 12 10 11 8 7 8 7 7 6 9 7 6 7 5 3 3 3
6 5 4 6 9 17 10 4 6 3 14 6 2 2 5 8 8 8 15 18 19 18 15 14 15 15 12 12 10 8 7 9 9 7 9 7 7 7 7 6 5 4 4 4
9 5 5 3 7 21 2 7 7 5 12 5 5 4 7 7 5 4 15 18 14 15 15 15 15 15 14 8 9 8 10 8 8 8 9 7 7 7 6 4 3 2 2 3
4 7 10 10 8 13 4 0 4 7 8 2 4 2 2 4 6 11 17 15 16 16 16 14 12 11 11 9 9 9 7 8 9 9 7 7 4 5 5 3 2 1 3 5
10 5 7 2 3 16 2 6 6 3 9 4 6 6 10 16 20 19 18 17 17 18 16 15 13 10 8 8 9 9 8 7 9 8 7 5 4 4 4 4 3 4 4 5
11 7 7 12 11 9 5 6 8 7 4 11 5 8 16 19 19 19 17 16 14 16 14 12 13 11 8 9 8 8 6 7 8 7 6 4 6 5 3 1 3 3 4 3
6 7 1 4 5 7 9 7 6 2 3 8 22 5 17 20 21 20 17 17 13 15 16 13 13 11 8 7 9 8 7 7 7 7 4 4 6 4 1 1 1 3 2 2
4 7 5 5 4 4 9 9 2 4 4 8 10 18 2 18 18 19 18 16 15 15 14 13 14 10 9 8 7 7 8 8 6 6 4 4 4 4 2 3 3 3 2 4
4 4 2 4 2 6 6 2 2 4 3 5 9 9 10 13 17 17 14 12 14 13 11 13 14 12 10 8 7 7 7 7 7 4 2 2 4 2 2 2 3 4 6 9
Wind_Direction
255 182 236 240 245 242 269 279 270 350 115 131 154 146 172 174 158 161 164 152 152 147 138 114 102 97 86 70 70 55 45 52 78 67 78 85 100 99 76 69 63 54 40 37
301 223 237 236 250 253 267 276 291 36 117 106 95 136 197 177 178 172 167 160 147 138 132 127 122 115 107 104 80 59 47 53 73 82 72 103 112 88 109 90 74 71 53 43
213 243 228 242 258 261 271 297 297 236 126 93 117 313 265 188 184 169 173 159 147 148 143 138 129 128 121 113 103 84 67 54 52 71 65 62 58 62 75 73 72 69 62 58
232 246 263 152 316 349 322 291 316 288 65 211 117 261 276 200 193 182 168 148 147 143 140 139 136 134 135 134 110 76 58 69 56 67 78 107 119 100 120 118 109 83 71 75
260 251 173 149 262 261 248 254 328 255 173 55 306 86 264 245 189 191 174 144 150 151 148 150 148 142 137 124 118 107 89 79 67 68 100 105 101 114 115 65 118 110 86 83
286 276 216 182 235 222 80 42 358 19 62 11 253 187 277 245 194 154 153 144 155 148 149 148 145 138 142 132 125 129 124 110 91 83 85 100 107 110 78 72 102 143 124 76
287 263 294 298 3 112 84 57 352 351 0 228 263 237 235 185 103 149 165 148 152 149 147 146 147 147 145 142 138 142 140 132 117 107 103 107 108 99 79 102 90 81 71 45
265 294 197 202 176 182 181 149 160 220 223 256 337 292 287 89 63 57 64 145 140 146 152 149 149 154 149 150 148 149 160 159 140 127 123 96 85 107 97 76 58 74 85 97
277 289 321 186 134 147 264 175 211 166 275 42 246 20 24 72 79 73 68 92 137 148 151 150 151 156 150 154 156 150 157 157 142 137 116 94 79 105 103 84 69 105 76 6
232 316 317 112 121 182 107 238 22 356 158 281 284 284 180 115 130 121 125 134 146 149 151 154 156 160 149 151 149 149 150 156 157 149 152 147 143 137 119 80 54 14 7 19
151 118 285 17 132 167 327 288 238 149 145 172 317 279 196 162 167 162 176 172 155 150 159 159 167 160 151 153 155 150 151 161 163 164 168 166 185 163 142 88 64 52 33 19
186 151 219 227 286 308 203 204 177 134 275 225 176 259 146 156 172 157 177 160 166 161 164 166 158 150 157 155 155 159 159 164 170 175 160 164 164 134 100 83 70 65 47 34
7 165 121 332 342 331 240 230 202 162 126 199 188 257 223 170 136 163 174 179 175 172 170 152 153 158 156 151 155 133 119 165 185 175 146 110 85 79 79 77 69 51 56 30
76 30 152 189 210 226 276 266 297 187 146 234 231 248 274 237 187 203 159 152 138 171 128 120 109 108 95 103 115 99 97 106 105 95 93 90 92 93 90 99 89 54 38 29
117 184 269 266 271 277 273 271 268 238 218 229 253 244 233 240 218 205 183 154 130 140 128 101 106 109 113 105 102 101 85 63 94 93 93 95 103 103 100 91 57 48 43 27
261 231 198 257 268 273 274 283 284 282 277 228 234 246 241 245 261 191 174 157 110 101 100 98 103 115 115 116 122 122 131 133 117 113 132 136 127 120 111 59 63 48 31 9
198 163 173 250 234 264 257 234 251 272 278 249 263 246 59 21 150 148 117 108 114 113 109 107 103 99 114 120 126 124 120 114 111 119 117 107 117 86 83 76 65 51 31 11
206 185 173 220 235 253 211 215 275 268 279 240 256 243 74 57 109 116 108 120 119 120 119 114 106 108 102 106 100 109 117 125 116 108 100 97 91 96 83 77 76 39 12 350
182 191 212 212 224 256 262 280 234 229 281 248 180 68 93 119 97 26 122 126 130 128 128 122 120 118 112 112 130 120 104 97 101 107 92 97 92 85 84 69 38 13 10 354
268 184 185 240 217 247 91 239 290 348 276 198 217 210 174 136 140 188 129 123 117 115 119 117 114 111 102 102 117 107 108 111 92 112 102 95 87 101 98 78 15 356 22 331
292 269 240 248 258 261 160 135 333 257 249 139 104 91 309 167 181 144 122 112 115 117 115 111 103 108 109 97 94 96 110 104 130 116 105 96 92 102 103 73 36 23 8 18
241 223 224 52 337 264 4 42 157 202 303 190 155 125 111 121 124 129 126 125 122 117 115 110 103 100 95 101 98 105 98 126 105 105 111 118 100 84 91 71 2 81 57 24
257 198 203 191 234 221 265 217 251 78 47 313 197 139 135 135 136 135 130 125 122 115 119 114 115 111 94 95 103 99 112 103 111 110 119 135 106 95 50 160 127 87 66 48
324 15 238 93 322 319 322 288 46 61 118 24 341 154 155 145 142 136 131 131 124 123 125 127 125 115 120 115 119 128 116 103 118 129 149 146 131 137 146 333 70 144 115 57
247 0 323 270 304 360 332 352 330 2 35 33 56 350 188 137 145 143 137 136 135 136 135 140 131 135 133 132 135 136 127 114 114 141 173 143 156 161 220 212 207 183 182 154
169 217 192 229 268 183 230 214 116 259 257 179 115 79 311 187 142 135 134 141 138 134 125 125 133 142 154 145 126 111 116 124 137 166 155 87 138 180 212 215 275 260 197 172